Printer-friendly version

IAU Minor Planet Center

Minor Planet Center

MPEC 2007-V35 : 2007 VX6

The following Minor Planet Electronic Circular may be linked-to from your own Web pages, but must not otherwise be redistributed electronically.


Read MPEC 2007-V34 Read MPEC 2007-V36


M.P.E.C. 2007-V35                                Issued 2007 Nov. 5, 17:08 UT

     The Minor Planet Electronic Circulars contain information on unusual
         minor planets and routine data on comets.  They are published
   on behalf of Commission 20 of the International Astronomical Union by the
          Minor Planet Center, Smithsonian Astrophysical Observatory,
                          Cambridge, MA 02138, U.S.A.

             Prepared using the Tamkin Foundation Computer Network

                              MPC@CFA.HARVARD.EDU
          URL http://www.cfa.harvard.edu/iau/mpc.html  ISSN 1523-6714

                                   2007 VX6

Observations:
     K07V06X* C2007 11 03.45042 07 59 03.94 +24 17 27.9          20.2 V EV035G96
     K07V06X  C2007 11 03.45762 07 59 00.52 +24 16 19.2          20.1 V EV035G96
     K07V06X  C2007 11 03.46478 07 58 57.07 +24 15 09.8          20.4 V EV035G96
     K07V06X  C2007 11 03.47199 07 58 53.58 +24 14 01.2          19.9 V EV035G96
     K07V06X  C2007 11 03.52694 07 58 27.08 +24 05 08.9          19.9 V EV035G96
     K07V06X  C2007 11 03.52825 07 58 26.43 +24 04 56.5          20.1 V EV035G96
     K07V06X  C2007 11 03.52961 07 58 25.78 +24 04 42.9          20.0 V EV035G96
     K07V06X  C2007 11 03.53098 07 58 25.14 +24 04 29.6          20.1 V EV035G96
     K07V06X  C2007 11 04.44214 07 51 24.84 +21 36 21.8          20.1 V EV035G96
     K07V06X  C2007 11 04.45089 07 51 20.73 +21 34 56.4          19.9 V EV035G96
     K07V06X  C2007 11 04.45968 07 51 16.59 +21 33 30.4          20.0 V EV035G96
     K07V06X  C2007 11 04.46852 07 51 12.45 +21 32 03.9          20.1 V EV035G96
     K07V06X  C2007 11 04.52931 07 50 43.83 +21 22 07.0          20.1 V EV035G96
     K07V06X  C2007 11 04.53174 07 50 42.68 +21 21 43.3          19.9 V EV035G96
     K07V06X  C2007 11 04.53419 07 50 41.53 +21 21 18.9          20.0 V EV035G96
     K07V06X  C2007 11 04.53662 07 50 40.38 +21 20 54.8          20.4 V EV035G96
     K07V06X  C2007 11 05.47610 07 43 37.20 +18 46 28.6          20.0 V EV035G96
     K07V06X  C2007 11 05.47663 07 43 36.94 +18 46 23.3          20.2 V EV035G96
     K07V06X  C2007 11 05.47718 07 43 36.69 +18 46 17.6          20.1 V EV035G96
     K07V06X  C2007 11 05.47771 07 43 36.44 +18 46 12.5          20.3 V EV035G96

Observer details:
G96 Mt. Lemmon Survey.  Observers A. Boattini, A. R. Gibbs.  Measurers
    E. C. Beshore, A. Boattini, G. J. Garradd, A. R. Gibbs, A. D. Grauer,
    R. E. Hill, R. A. Kowalski, S. M. Larson, R. H. McNaught.  1.5-m reflector
    + CCD.

Orbital elements:
2007 VX6                                                 Earth MOID = 0.0788 AU
Epoch 2007 Oct. 27.0 TT = JDT 2454400.5                 MPC
M  10.40628              (2000.0)            P               Q
n   0.28250534     Peri.  120.00873     +0.82041133     +0.20667887
a   2.3003025      Node   233.89355     -0.20835529     +0.97633961
e   0.6193718      Incl.   41.28884     +0.53245970     +0.06359887
P   3.49           H   20.8           G   0.15           U   9
Residuals in seconds of arc
071103 G96  0.6-  0.2-    071103 G96  0.3-  0.4-    071104 G96  0.1-  0.2-
071103 G96  0.0   0.4+    071104 G96  0.4-  0.1-    071104 G96  0.2-  0.4-
071103 G96  0.0   0.0     071104 G96  0.4-  0.1+    071105 G96  0.2-  0.2+
071103 G96  0.2-  1.0+    071104 G96  0.4-  0.2+    071105 G96  0.4-  0.2+
071103 G96  0.4-  0.2-    071104 G96  0.1-  0.3+    071105 G96  0.4-  0.1-
071103 G96  0.6-  0.1+    071104 G96  0.1-  0.0     071105 G96  0.5-  0.0
071103 G96  0.6-  0.3-    071104 G96  0.2-  0.1+

Ephemeris:
2007 VX6                 a,e,i = 2.30, 0.62, 41                  q = 0.8756
Date    TT    R. A. (2000) Decl.     Delta      r     Elong.  Phase     V
2007 11 06    07 39.75   +17 20.3    0.238    1.093   109.2    58.9    20.0
2007 11 11    07 05.34   +04 00.2    0.250    1.133   119.1    49.7    19.9
2007 11 16    06 35.37   -07 16.6    0.279    1.175   126.0    42.9    20.0
2007 11 21    06 09.58   -15 44.2    0.320    1.217   129.6    38.7    20.3
2007 11 26    05 47.65   -21 39.0    0.371    1.261   130.7    36.4    20.6
2007 12 01    05 29.21   -25 36.0    0.429    1.305   130.3    35.2    21.0
2007 12 06    05 13.90   -28 07.4    0.490    1.349   129.1    34.5    21.3
2007 12 11    05 01.42   -29 37.3    0.556    1.394   127.4    34.1    21.7
2007 12 16    04 51.46   -30 23.2    0.624    1.439   125.5    33.9    22.0

Timothy B. Spahr             (C) Copyright 2007 MPC           M.P.E.C. 2007-V35

Read MPEC 2007-V34 Read MPEC 2007-V36


Our Web policy. Index to the CBAT/MPC/ICQ pages.


Valid HTML 4.01!